Live-Position
3D-Globus wird geladen...
Über Starlink 3528
Group: 3 satellites
Beschreibung wird geladen...
Nächste Überflüge
Passes for default location (London). Set your location on the main map for personalized predictions.
Höhenverlauf
Loading altitude history...
No altitude history available
Zweizeiliger Elementsatz
1 51714U 22016A 26123.59094158 -.00000242 00000-0 29271-5 0 9999
2 51714 53.2176 82.6353 0001754 73.8950 286.2236 15.08834831231714
Epoch: 3. Mai 2026 •
Age: 16 hours
Aktueller Status
Höhe 539.4 km
Geschwindigkeit 7.59 km/s
Subsatellitenpunkt 8.63°N,
132.07°E
Startdatum 21. Feb. 2022
Alter 4.1 years
Typ internet
Startgruppe
Falcon 9 •
Group 4-8 •
43 satellites
Starlink 3533
51715
Starlink 3543 51716
Starlink 3445 51717
Starlink 3546 51718
Starlink 3540 51719
Starlink 3526 51720
Starlink 3524 51721
Starlink 3535 51722
Starlink 3529 51724
Starlink 3522 51725
Starlink 3527 51726
Starlink 3532 51727
Starlink 3523 51729
Starlink 3514 51731
Starlink 3518 51732
Starlink 3525 51733
Starlink 3450 51734
Starlink 3517 51735
Starlink 3447 51736
Starlink 3509 51737
...and 22 more
Technische Details
Klassifizierung Payload
Masse 297.00 kg
Trockenmasse 275.00 kg
Gesamtmasse 297.00 kg
Länge 0.20 m
Durchmesser 2.80 m
Spannweite 9.00 m
Form Box + pan
Hersteller SPXS
Bus-Typ Starlink
Phasenstatus In Orbit
Besitzer/Staat SPXS/US
Most Searched
Loading...